Year,Month,Day,Hour,Minute,Value (Times are PST for temperature in C)
2015,10,25,00,00,7.20
2015,10,25,00,01,7.20
2015,10,25,00,02,7.20
2015,10,25,00,03,7.20
2015,10,25,00,04,7.20
2015,10,25,00,05,7.20
2015,10,25,00,06,7.20
2015,10,25,00,07,7.20
2015,10,25,00,08,7.20
2015,10,25,00,09,7.20
2015,10,25,00,10,7.30
2015,10,25,00,11,7.30
2015,10,25,00,12,7.30
2015,10,25,00,13,7.30
2015,10,25,00,14,7.30
2015,10,25,00,15,7.30
2015,10,25,00,16,7.40
2015,10,25,00,17,7.40
2015,10,25,00,18,7.40
2015,10,25,00,19,7.40
2015,10,25,00,20,7.50
2015,10,25,00,21,7.50
2015,10,25,00,22,7.50
2015,10,25,00,23,7.50
2015,10,25,00,24,7.50
2015,10,25,00,25,7.50
2015,10,25,00,26,7.50
2015,10,25,00,27,7.40
2015,10,25,00,28,7.40
2015,10,25,00,29,7.40
2015,10,25,00,30,7.40
2015,10,25,00,31,7.40
2015,10,25,00,32,7.40
2015,10,25,00,33,7.40
2015,10,25,00,34,7.40
2015,10,25,00,35,7.40
2015,10,25,00,36,7.40
2015,10,25,00,37,7.40
2015,10,25,00,38,7.40
2015,10,25,00,39,7.40
2015,10,25,00,40,7.40
2015,10,25,00,41,7.40
2015,10,25,00,42,7.40
2015,10,25,00,43,7.40
2015,10,25,00,44,7.40
2015,10,25,00,45,7.40
2015,10,25,00,46,7.40
2015,10,25,00,47,7.40
2015,10,25,00,48,7.50
2015,10,25,00,49,7.50
2015,10,25,00,50,7.50
2015,10,25,00,51,7.50
2015,10,25,00,52,7.50
2015,10,25,00,53,7.50
2015,10,25,00,54,7.50
2015,10,25,00,55,7.50
2015,10,25,00,56,7.50
2015,10,25,00,57,7.50
2015,10,25,00,58,7.50
2015,10,25,00,59,7.50
2015,10,25,01,00,7.50
2015,10,25,01,01,7.50
2015,10,25,01,02,7.60
2015,10,25,01,03,7.60
2015,10,25,01,04,7.60
2015,10,25,01,05,7.60
2015,10,25,01,06,7.60
2015,10,25,01,07,7.60
2015,10,25,01,08,7.60
2015,10,25,01,09,7.60
2015,10,25,01,10,7.60
2015,10,25,01,11,7.60
2015,10,25,01,12,7.60
2015,10,25,01,13,7.60
2015,10,25,01,14,7.60
2015,10,25,01,15,7.60
2015,10,25,01,16,7.70
2015,10,25,01,17,7.70
2015,10,25,01,18,7.70
2015,10,25,01,19,7.60
2015,10,25,01,20,7.70
2015,10,25,01,21,7.70
2015,10,25,01,22,7.60
2015,10,25,01,23,7.60
2015,10,25,01,24,7.60
2015,10,25,01,25,7.60
2015,10,25,01,26,7.60
2015,10,25,01,27,7.60
2015,10,25,01,28,7.60
2015,10,25,01,29,7.60
2015,10,25,01,30,7.60
2015,10,25,01,31,7.60
2015,10,25,01,32,7.60
2015,10,25,01,33,7.60
2015,10,25,01,34,7.60
2015,10,25,01,35,7.60
2015,10,25,01,36,7.70
2015,10,25,01,37,7.70
2015,10,25,01,38,7.70
2015,10,25,01,39,7.70
2015,10,25,01,40,7.70
2015,10,25,01,41,7.70
2015,10,25,01,42,7.70
2015,10,25,01,43,7.70
2015,10,25,01,44,7.70
2015,10,25,01,45,7.70
2015,10,25,01,46,7.80
2015,10,25,01,47,7.80
2015,10,25,01,48,7.80
2015,10,25,01,49,7.80
2015,10,25,01,50,7.80
2015,10,25,01,51,7.80
2015,10,25,01,52,7.90
2015,10,25,01,53,7.90
2015,10,25,01,54,7.90
2015,10,25,01,55,7.90
2015,10,25,01,56,7.90
2015,10,25,01,57,7.90
2015,10,25,01,58,7.90
2015,10,25,01,59,7.90
2015,10,25,02,00,7.90
2015,10,25,02,01,7.90
2015,10,25,02,02,7.90
2015,10,25,02,03,7.90
2015,10,25,02,04,7.90
2015,10,25,02,05,7.90
2015,10,25,02,06,7.90
2015,10,25,02,07,7.90
2015,10,25,02,08,7.90
2015,10,25,02,09,7.90
2015,10,25,02,10,7.90
2015,10,25,02,11,7.90
2015,10,25,02,12,7.90
2015,10,25,02,13,7.90
2015,10,25,02,14,7.80
2015,10,25,02,15,7.80
2015,10,25,02,16,7.80
2015,10,25,02,17,7.80
2015,10,25,02,18,7.80
2015,10,25,02,19,7.80
2015,10,25,02,20,7.80
2015,10,25,02,21,7.80
2015,10,25,02,22,7.80
2015,10,25,02,23,7.80
2015,10,25,02,24,7.80
2015,10,25,02,25,7.80
2015,10,25,02,26,7.80
2015,10,25,02,27,7.80
2015,10,25,02,28,7.70
2015,10,25,02,29,7.70
2015,10,25,02,30,7.70
2015,10,25,02,31,7.70
2015,10,25,02,32,7.70
2015,10,25,02,33,7.70
2015,10,25,02,34,7.70
2015,10,25,02,35,7.70
2015,10,25,02,36,7.70
2015,10,25,02,37,7.70
2015,10,25,02,38,7.80
2015,10,25,02,39,7.80
2015,10,25,02,40,7.80
2015,10,25,02,41,7.80
2015,10,25,02,42,7.80
2015,10,25,02,43,7.80
2015,10,25,02,44,7.80
2015,10,25,02,45,7.80
2015,10,25,02,46,7.80
2015,10,25,02,47,7.80
2015,10,25,02,48,7.80
2015,10,25,02,49,7.90
2015,10,25,02,50,7.90
2015,10,25,02,51,7.80
2015,10,25,02,52,7.80
2015,10,25,02,53,7.80
2015,10,25,02,54,7.80
2015,10,25,02,55,7.80
2015,10,25,02,56,7.80
2015,10,25,02,57,7.80
2015,10,25,02,58,7.80
2015,10,25,02,59,7.80
2015,10,25,03,00,7.80
2015,10,25,03,01,7.70
2015,10,25,03,02,7.70
2015,10,25,03,03,7.70
2015,10,25,03,04,7.70
2015,10,25,03,05,7.70
2015,10,25,03,06,7.70
2015,10,25,03,07,7.70
2015,10,25,03,08,7.70
2015,10,25,03,09,7.70
2015,10,25,03,10,7.70
2015,10,25,03,11,7.70
2015,10,25,03,12,7.70
2015,10,25,03,13,7.70
2015,10,25,03,14,7.70
2015,10,25,03,15,7.70
2015,10,25,03,16,7.70
2015,10,25,03,17,7.70
2015,10,25,03,18,7.70
2015,10,25,03,19,7.70
2015,10,25,03,20,7.70
2015,10,25,03,21,7.70
2015,10,25,03,22,7.70
2015,10,25,03,23,7.70
2015,10,25,03,24,7.70
2015,10,25,03,25,7.70
2015,10,25,03,26,7.70
2015,10,25,03,27,7.70
2015,10,25,03,28,7.70
2015,10,25,03,29,7.70
2015,10,25,03,30,7.70
2015,10,25,03,31,7.70
2015,10,25,03,32,7.70
2015,10,25,03,33,7.70
2015,10,25,03,34,7.70
2015,10,25,03,35,7.70
2015,10,25,03,36,7.70
2015,10,25,03,37,7.70
2015,10,25,03,38,7.70
2015,10,25,03,39,7.70
2015,10,25,03,40,7.70
2015,10,25,03,41,7.70
2015,10,25,03,42,7.70
2015,10,25,03,43,7.70
2015,10,25,03,44,7.70
2015,10,25,03,45,7.70
2015,10,25,03,46,7.70
2015,10,25,03,47,7.80
2015,10,25,03,48,7.80
2015,10,25,03,49,7.80
2015,10,25,03,50,7.80
2015,10,25,03,51,7.80
2015,10,25,03,52,7.80
2015,10,25,03,53,7.80
2015,10,25,03,54,7.80
2015,10,25,03,55,7.80
2015,10,25,03,56,7.80
2015,10,25,03,57,7.80
2015,10,25,03,58,7.80
2015,10,25,03,59,7.90
2015,10,25,04,00,7.90
2015,10,25,04,01,7.90
2015,10,25,04,02,7.90
2015,10,25,04,03,7.90
2015,10,25,04,04,7.90
2015,10,25,04,05,7.90
2015,10,25,04,06,7.90
2015,10,25,04,07,7.90
2015,10,25,04,08,7.90
2015,10,25,04,09,7.90
2015,10,25,04,10,7.90
2015,10,25,04,11,7.90
2015,10,25,04,12,7.90
2015,10,25,04,13,7.90
2015,10,25,04,14,7.90
2015,10,25,04,15,7.90
2015,10,25,04,16,7.90
2015,10,25,04,17,7.90
2015,10,25,04,18,7.90
2015,10,25,04,19,7.90
2015,10,25,04,20,8.00
2015,10,25,04,21,8.00
2015,10,25,04,22,8.00
2015,10,25,04,23,8.00
2015,10,25,04,24,8.00
2015,10,25,04,25,8.00
2015,10,25,04,26,8.00
2015,10,25,04,27,8.10
2015,10,25,04,28,8.10
2015,10,25,04,29,8.10
2015,10,25,04,30,8.10
2015,10,25,04,31,8.10
2015,10,25,04,32,8.10
2015,10,25,04,33,8.10
2015,10,25,04,34,8.10
2015,10,25,04,35,8.10
2015,10,25,04,36,8.10
2015,10,25,04,37,8.10
2015,10,25,04,38,8.10
2015,10,25,04,39,8.10
2015,10,25,04,40,8.10
2015,10,25,04,41,8.10
2015,10,25,04,42,8.10
2015,10,25,04,43,8.10
2015,10,25,04,44,8.10
2015,10,25,04,45,8.10
2015,10,25,04,46,8.10
2015,10,25,04,47,8.10
2015,10,25,04,48,8.10
2015,10,25,04,49,8.10
2015,10,25,04,50,8.10
2015,10,25,04,51,8.10
2015,10,25,04,52,8.10
2015,10,25,04,53,8.10
2015,10,25,04,54,8.10
2015,10,25,04,55,8.10
2015,10,25,04,56,8.00
2015,10,25,04,57,8.00
2015,10,25,04,58,8.00
2015,10,25,04,59,8.00
2015,10,25,05,00,8.00
2015,10,25,05,01,8.00
2015,10,25,05,02,8.00
2015,10,25,05,03,8.00
2015,10,25,05,04,8.00
2015,10,25,05,05,8.00
2015,10,25,05,06,8.00
2015,10,25,05,07,8.00
2015,10,25,05,08,8.00
2015,10,25,05,09,8.00
2015,10,25,05,10,8.00
2015,10,25,05,11,8.00
2015,10,25,05,12,8.00
2015,10,25,05,13,8.10
2015,10,25,05,14,8.10
2015,10,25,05,15,8.10
2015,10,25,05,16,8.10
2015,10,25,05,17,8.10
2015,10,25,05,18,8.10
2015,10,25,05,19,8.10
2015,10,25,05,20,8.10
2015,10,25,05,21,8.20
2015,10,25,05,22,8.20
2015,10,25,05,23,8.20
2015,10,25,05,24,8.20
2015,10,25,05,25,8.20
2015,10,25,05,26,8.20
2015,10,25,05,27,8.20
2015,10,25,05,28,8.30
2015,10,25,05,29,8.30
2015,10,25,05,30,8.30
2015,10,25,05,31,8.30
2015,10,25,05,32,8.30
2015,10,25,05,33,8.30
2015,10,25,05,34,8.30
2015,10,25,05,35,8.30
2015,10,25,05,36,8.30
2015,10,25,05,37,8.30
2015,10,25,05,38,8.30
2015,10,25,05,39,8.30
2015,10,25,05,40,8.30
2015,10,25,05,41,8.30
2015,10,25,05,42,8.30
2015,10,25,05,43,8.30
2015,10,25,05,44,8.30
2015,10,25,05,45,8.30
2015,10,25,05,46,8.30
2015,10,25,05,47,8.30
2015,10,25,05,48,8.30
2015,10,25,05,49,8.30
2015,10,25,05,50,8.30
2015,10,25,05,51,8.30
2015,10,25,05,52,8.30
2015,10,25,05,53,8.30
2015,10,25,05,54,8.30
2015,10,25,05,55,8.30
2015,10,25,05,56,8.30
2015,10,25,05,57,8.30
2015,10,25,05,58,8.30
2015,10,25,05,59,8.30
2015,10,25,06,00,8.30
2015,10,25,06,01,8.30
2015,10,25,06,02,8.30
2015,10,25,06,03,8.30
2015,10,25,06,04,8.30
2015,10,25,06,05,8.30
2015,10,25,06,06,8.30
2015,10,25,06,07,8.30
2015,10,25,06,08,8.30
2015,10,25,06,09,8.30
2015,10,25,06,10,8.30
2015,10,25,06,11,8.30
2015,10,25,06,12,8.30
2015,10,25,06,13,8.30
2015,10,25,06,14,8.30
2015,10,25,06,15,8.30
2015,10,25,06,16,8.30
2015,10,25,06,17,8.30
2015,10,25,06,18,8.30
2015,10,25,06,19,8.30
2015,10,25,06,20,8.30
2015,10,25,06,21,8.30
2015,10,25,06,22,8.30
2015,10,25,06,23,8.30
2015,10,25,06,24,8.30
2015,10,25,06,25,8.30
2015,10,25,06,26,8.30
2015,10,25,06,27,8.30
2015,10,25,06,28,8.30
2015,10,25,06,29,8.30
2015,10,25,06,30,8.20
2015,10,25,06,31,8.20
2015,10,25,06,32,8.20
2015,10,25,06,33,8.20
2015,10,25,06,34,8.20
2015,10,25,06,35,8.20
2015,10,25,06,36,8.20
2015,10,25,06,37,8.10
2015,10,25,06,38,8.10
2015,10,25,06,39,8.10
2015,10,25,06,40,8.10
2015,10,25,06,41,8.10
2015,10,25,06,42,8.10
2015,10,25,06,43,8.10
2015,10,25,06,44,8.10
2015,10,25,06,45,8.10
2015,10,25,06,46,8.00
2015,10,25,06,47,8.00
2015,10,25,06,48,8.00
2015,10,25,06,49,8.00
2015,10,25,06,50,8.00
2015,10,25,06,51,8.00
2015,10,25,06,52,8.00
2015,10,25,06,53,7.90
2015,10,25,06,54,7.90
2015,10,25,06,55,7.90
2015,10,25,06,56,7.80
2015,10,25,06,57,7.80
2015,10,25,06,58,7.80
2015,10,25,06,59,7.80
2015,10,25,07,00,7.80
2015,10,25,07,01,7.70
2015,10,25,07,02,7.70
2015,10,25,07,03,7.70
2015,10,25,07,04,7.70
2015,10,25,07,05,7.70
2015,10,25,07,06,7.70
2015,10,25,07,07,7.60
2015,10,25,07,08,7.60
2015,10,25,07,09,7.60
2015,10,25,07,10,7.60
2015,10,25,07,11,7.50
2015,10,25,07,12,7.50
2015,10,25,07,13,7.40
2015,10,25,07,14,7.40
2015,10,25,07,15,7.40
2015,10,25,07,16,7.40
2015,10,25,07,17,7.40
2015,10,25,07,18,7.30
2015,10,25,07,19,7.30
2015,10,25,07,20,7.30
2015,10,25,07,21,7.30
2015,10,25,07,22,7.30
2015,10,25,07,23,7.30
2015,10,25,07,24,7.30
2015,10,25,07,25,7.30
2015,10,25,07,26,7.20
2015,10,25,07,27,7.20
2015,10,25,07,28,7.20
2015,10,25,07,29,7.20
2015,10,25,07,30,7.20
2015,10,25,07,31,7.20
2015,10,25,07,32,7.10
2015,10,25,07,33,7.10
2015,10,25,07,34,7.10
2015,10,25,07,35,7.10
2015,10,25,07,36,7.10
2015,10,25,07,37,7.10
2015,10,25,07,38,7.00
2015,10,25,07,39,7.00
2015,10,25,07,40,7.00
2015,10,25,07,41,7.00
2015,10,25,07,42,6.90
2015,10,25,07,43,6.90
2015,10,25,07,44,6.90
2015,10,25,07,45,6.90
2015,10,25,07,46,6.90
2015,10,25,07,47,6.90
2015,10,25,07,48,6.90
2015,10,25,07,49,6.90
2015,10,25,07,50,6.90
2015,10,25,07,51,6.90
2015,10,25,07,52,6.90
2015,10,25,07,53,6.90
2015,10,25,07,54,6.80
2015,10,25,07,55,6.80
2015,10,25,07,56,6.80
2015,10,25,07,57,6.80
2015,10,25,07,58,6.80
2015,10,25,07,59,6.80
2015,10,25,08,00,6.80
2015,10,25,08,01,6.70
2015,10,25,08,02,6.70
2015,10,25,08,03,6.70
2015,10,25,08,04,6.70
2015,10,25,08,05,6.70
2015,10,25,08,06,6.70
2015,10,25,08,07,6.60
2015,10,25,08,08,6.60
2015,10,25,08,09,6.60
2015,10,25,08,10,6.60
2015,10,25,08,11,6.60
2015,10,25,08,12,6.50
2015,10,25,08,13,6.50
2015,10,25,08,14,6.50
2015,10,25,08,15,6.50
2015,10,25,08,16,6.50
2015,10,25,08,17,6.40
2015,10,25,08,18,6.40
2015,10,25,08,19,6.40
2015,10,25,08,20,6.40
2015,10,25,08,21,6.40
2015,10,25,08,22,6.50
2015,10,25,08,23,6.50
2015,10,25,08,24,6.50
2015,10,25,08,25,6.50
2015,10,25,08,26,6.50
2015,10,25,08,27,6.50
2015,10,25,08,28,6.50
2015,10,25,08,29,6.50
2015,10,25,08,30,6.60
2015,10,25,08,31,6.60
2015,10,25,08,32,6.60
2015,10,25,08,33,6.60
2015,10,25,08,34,6.60
2015,10,25,08,35,6.60
2015,10,25,08,36,6.60
2015,10,25,08,37,6.60
2015,10,25,08,38,6.60
2015,10,25,08,39,6.60
2015,10,25,08,40,6.60
2015,10,25,08,41,6.60
2015,10,25,08,42,6.60
2015,10,25,08,43,6.60
2015,10,25,08,44,6.60
2015,10,25,08,45,6.70
2015,10,25,08,46,6.70
2015,10,25,08,47,6.70
2015,10,25,08,48,6.70
2015,10,25,08,49,6.80
2015,10,25,08,50,6.80
2015,10,25,08,51,6.80
2015,10,25,08,52,6.80
2015,10,25,08,53,6.90
2015,10,25,08,54,6.90
2015,10,25,08,55,6.90
2015,10,25,08,56,6.90
2015,10,25,08,57,6.90
2015,10,25,08,58,7.00
2015,10,25,08,59,7.00
2015,10,25,09,00,7.00
2015,10,25,09,01,7.10
2015,10,25,09,02,7.10
2015,10,25,09,03,7.20
2015,10,25,09,04,7.20
2015,10,25,09,05,7.20
2015,10,25,09,06,7.30
2015,10,25,09,07,7.30
2015,10,25,09,08,7.30
2015,10,25,09,09,7.40
2015,10,25,09,10,7.40
2015,10,25,09,11,7.40
2015,10,25,09,12,7.50
2015,10,25,09,13,7.50
2015,10,25,09,14,7.50
2015,10,25,09,15,7.50
2015,10,25,09,16,7.60
2015,10,25,09,17,7.60
2015,10,25,09,18,7.60
2015,10,25,09,19,7.60
2015,10,25,09,20,7.70
2015,10,25,09,21,7.70
2015,10,25,09,22,7.70
2015,10,25,09,23,7.70
2015,10,25,09,24,7.70
2015,10,25,09,25,7.80
2015,10,25,09,26,7.80
2015,10,25,09,27,7.80
2015,10,25,09,28,7.80
2015,10,25,09,29,7.80
2015,10,25,09,30,7.80
2015,10,25,09,31,7.80
2015,10,25,09,32,7.90
2015,10,25,09,33,7.90
2015,10,25,09,34,7.90
2015,10,25,09,35,8.00
2015,10,25,09,36,8.10
2015,10,25,09,37,8.10
2015,10,25,09,38,8.10
2015,10,25,09,39,8.20
2015,10,25,09,40,8.20
2015,10,25,09,41,8.20
2015,10,25,09,42,8.30
2015,10,25,09,43,8.30
2015,10,25,09,44,8.30
2015,10,25,09,45,8.30
2015,10,25,09,46,8.40
2015,10,25,09,47,8.40
2015,10,25,09,48,8.40
2015,10,25,09,49,8.50
2015,10,25,09,50,8.50
2015,10,25,09,51,8.50
2015,10,25,09,52,8.60
2015,10,25,09,53,8.60
2015,10,25,09,54,8.60
2015,10,25,09,55,8.60
2015,10,25,09,56,8.70
2015,10,25,09,57,8.70
2015,10,25,09,58,8.70
2015,10,25,09,59,8.70
2015,10,25,10,00,8.80
2015,10,25,10,01,8.80
2015,10,25,10,02,8.80
2015,10,25,10,03,8.80
2015,10,25,10,04,8.90
2015,10,25,10,05,8.90
2015,10,25,10,06,8.90
2015,10,25,10,07,8.90
2015,10,25,10,08,8.90
2015,10,25,10,09,9.00
2015,10,25,10,10,9.00
2015,10,25,10,11,9.00
2015,10,25,10,12,9.10
2015,10,25,10,13,9.10
2015,10,25,10,14,9.10
2015,10,25,10,15,9.10
2015,10,25,10,16,9.10
2015,10,25,10,17,9.10
2015,10,25,10,18,9.10
2015,10,25,10,19,9.10
2015,10,25,10,20,9.20
2015,10,25,10,21,9.30
2015,10,25,10,22,9.30
2015,10,25,10,23,9.30
2015,10,25,10,24,9.30
2015,10,25,10,25,9.30
2015,10,25,10,26,9.30
2015,10,25,10,27,9.30
2015,10,25,10,28,9.30
2015,10,25,10,29,9.30
2015,10,25,10,30,9.30
2015,10,25,10,31,9.40
2015,10,25,10,32,9.40
2015,10,25,10,33,9.40
2015,10,25,10,34,9.40
2015,10,25,10,35,9.40
2015,10,25,10,36,9.50
2015,10,25,10,37,9.50
2015,10,25,10,38,9.50
2015,10,25,10,39,9.60
2015,10,25,10,40,9.60
2015,10,25,10,41,9.60
2015,10,25,10,42,9.70
2015,10,25,10,43,9.70
2015,10,25,10,44,9.80
2015,10,25,10,45,9.80
2015,10,25,10,46,9.80
2015,10,25,10,47,9.90
2015,10,25,10,48,9.90
2015,10,25,10,49,9.90
2015,10,25,10,50,9.90
2015,10,25,10,51,10.00
2015,10,25,10,52,10.00
2015,10,25,10,53,10.00
2015,10,25,10,54,10.10
2015,10,25,10,55,10.10
2015,10,25,10,56,10.10
2015,10,25,10,57,10.20
2015,10,25,10,58,10.20
2015,10,25,10,59,10.30
2015,10,25,11,00,10.30
2015,10,25,11,01,10.30
2015,10,25,11,02,10.30
2015,10,25,11,03,10.30
2015,10,25,11,04,10.40
2015,10,25,11,05,10.40
2015,10,25,11,06,10.40
2015,10,25,11,07,10.50
2015,10,25,11,08,10.50
2015,10,25,11,09,10.50
2015,10,25,11,10,10.50
2015,10,25,11,11,10.60
2015,10,25,11,12,10.60
2015,10,25,11,13,10.60
2015,10,25,11,14,10.60
2015,10,25,11,15,10.70
2015,10,25,11,16,10.70
2015,10,25,11,17,10.70
2015,10,25,11,18,10.70
2015,10,25,11,19,10.70
2015,10,25,11,20,10.80
2015,10,25,11,21,10.80
2015,10,25,11,22,10.80
2015,10,25,11,23,10.90
2015,10,25,11,24,10.90
2015,10,25,11,25,10.90
2015,10,25,11,26,10.90
2015,10,25,11,27,10.90
2015,10,25,11,28,11.00
2015,10,25,11,29,11.00
2015,10,25,11,30,11.00
2015,10,25,11,31,11.10
2015,10,25,11,32,11.10
2015,10,25,11,33,11.10
2015,10,25,11,34,11.10
2015,10,25,11,35,11.10
2015,10,25,11,36,11.10
2015,10,25,11,37,11.10
2015,10,25,11,38,11.10
2015,10,25,11,39,11.10
2015,10,25,11,40,11.10
2015,10,25,11,41,11.10
2015,10,25,11,42,11.10
2015,10,25,11,43,11.10
2015,10,25,11,44,11.20
2015,10,25,11,45,11.20
2015,10,25,11,46,11.20
2015,10,25,11,47,11.20
2015,10,25,11,48,11.20
2015,10,25,11,49,11.20
2015,10,25,11,50,11.20
2015,10,25,11,51,11.20
2015,10,25,11,52,11.30
2015,10,25,11,53,11.30
2015,10,25,11,54,11.30
2015,10,25,11,55,11.30
2015,10,25,11,56,11.30
2015,10,25,11,57,11.30
2015,10,25,11,58,11.30
2015,10,25,11,59,11.30
2015,10,25,12,00,11.30
2015,10,25,12,01,11.30
2015,10,25,12,02,11.40
2015,10,25,12,03,11.40
2015,10,25,12,04,11.40
2015,10,25,12,05,11.40
2015,10,25,12,06,11.50
2015,10,25,12,07,11.50
2015,10,25,12,08,11.50
2015,10,25,12,09,11.50
2015,10,25,12,10,11.60
2015,10,25,12,11,11.60
2015,10,25,12,12,11.60
2015,10,25,12,13,11.60
2015,10,25,12,14,11.70
2015,10,25,12,15,11.70
2015,10,25,12,16,11.70
2015,10,25,12,17,11.70
2015,10,25,12,18,11.70
2015,10,25,12,19,11.80
2015,10,25,12,20,11.80
2015,10,25,12,21,11.80
2015,10,25,12,22,11.80
2015,10,25,12,23,11.80
2015,10,25,12,24,11.80
2015,10,25,12,25,11.90
2015,10,25,12,26,11.90
2015,10,25,12,27,11.90
2015,10,25,12,28,12.00
2015,10,25,12,29,12.00
2015,10,25,12,30,12.00
2015,10,25,12,31,12.10
2015,10,25,12,32,12.10
2015,10,25,12,33,12.10
2015,10,25,12,34,12.20
2015,10,25,12,35,12.30
2015,10,25,12,36,12.30
2015,10,25,12,37,12.30
2015,10,25,12,38,12.40
2015,10,25,12,39,12.40
2015,10,25,12,40,12.50
2015,10,25,12,41,12.50
2015,10,25,12,42,12.60
2015,10,25,12,43,12.60
2015,10,25,12,44,12.70
2015,10,25,12,45,12.70
2015,10,25,12,46,12.70
2015,10,25,12,47,12.70
2015,10,25,12,48,12.80
2015,10,25,12,49,12.80
2015,10,25,12,50,12.90
2015,10,25,12,51,12.90
2015,10,25,12,52,13.00
2015,10,25,12,53,13.00
2015,10,25,12,54,13.10
2015,10,25,12,55,13.10
2015,10,25,12,56,13.20
2015,10,25,12,57,13.20
2015,10,25,12,58,13.30
2015,10,25,12,59,13.30
2015,10,25,13,00,13.40
2015,10,25,13,01,13.40
2015,10,25,13,02,13.50
2015,10,25,13,03,13.50
2015,10,25,13,04,13.60
2015,10,25,13,05,13.60
2015,10,25,13,06,13.70
2015,10,25,13,07,13.70
2015,10,25,13,08,13.70
2015,10,25,13,09,13.80
2015,10,25,13,10,13.80
2015,10,25,13,11,13.80
2015,10,25,13,12,13.90
2015,10,25,13,13,13.90
2015,10,25,13,14,13.90
2015,10,25,13,15,13.90
2015,10,25,13,16,14.00
2015,10,25,13,17,14.00
2015,10,25,13,18,14.10
2015,10,25,13,19,14.10
2015,10,25,13,20,14.20
2015,10,25,13,21,14.20
2015,10,25,13,22,14.30
2015,10,25,13,23,14.30
2015,10,25,13,24,14.30
2015,10,25,13,25,14.40
2015,10,25,13,26,14.40
2015,10,25,13,27,14.40
2015,10,25,13,28,14.40
2015,10,25,13,29,14.40
2015,10,25,13,30,14.40
2015,10,25,13,31,14.40
2015,10,25,13,32,14.40
2015,10,25,13,33,14.40
2015,10,25,13,34,14.40
2015,10,25,13,35,14.40
2015,10,25,13,36,14.40
2015,10,25,13,37,14.30
2015,10,25,13,38,14.30
2015,10,25,13,39,14.30
2015,10,25,13,40,14.30
2015,10,25,13,41,14.30
2015,10,25,13,42,14.20
2015,10,25,13,43,14.20
2015,10,25,13,44,14.20
2015,10,25,13,45,14.20
2015,10,25,13,46,14.20
2015,10,25,13,47,14.20
2015,10,25,13,48,14.20
2015,10,25,13,49,14.10
2015,10,25,13,50,14.10
2015,10,25,13,51,14.10
2015,10,25,13,52,14.10
2015,10,25,13,53,14.00
2015,10,25,13,54,14.00
2015,10,25,13,55,14.00
2015,10,25,13,56,14.00
2015,10,25,13,57,13.90
2015,10,25,13,58,13.90
2015,10,25,13,59,13.80
2015,10,25,14,00,13.80
2015,10,25,14,01,13.70
2015,10,25,14,02,13.70
2015,10,25,14,03,13.60
2015,10,25,14,04,13.60
2015,10,25,14,05,13.50
2015,10,25,14,06,13.40
2015,10,25,14,07,13.40
2015,10,25,14,08,13.40
2015,10,25,14,09,13.30
2015,10,25,14,10,13.30
2015,10,25,14,11,13.30
2015,10,25,14,12,13.30
2015,10,25,14,13,13.30
2015,10,25,14,14,13.30
2015,10,25,14,15,13.30
2015,10,25,14,16,13.30
2015,10,25,14,17,13.30
2015,10,25,14,18,13.30
2015,10,25,14,19,13.30
2015,10,25,14,20,13.30
2015,10,25,14,21,13.30
2015,10,25,14,22,13.30
2015,10,25,14,23,13.30
2015,10,25,14,24,13.30
2015,10,25,14,25,13.30
2015,10,25,14,26,13.30
2015,10,25,14,27,13.30
2015,10,25,14,28,13.30
2015,10,25,14,29,13.30
2015,10,25,14,30,13.20
2015,10,25,14,31,13.20
2015,10,25,14,32,13.20
2015,10,25,14,33,13.20
2015,10,25,14,34,13.20
2015,10,25,14,35,13.20
2015,10,25,14,36,13.20
2015,10,25,14,37,13.20
2015,10,25,14,38,13.20
2015,10,25,14,39,13.20
2015,10,25,14,40,13.20
2015,10,25,14,41,13.20
2015,10,25,14,42,13.20
2015,10,25,14,43,13.20
2015,10,25,14,44,13.30
2015,10,25,14,45,13.30
2015,10,25,14,46,13.30
2015,10,25,14,47,13.30
2015,10,25,14,48,13.30
2015,10,25,14,49,13.30
2015,10,25,14,50,13.30
2015,10,25,14,51,13.30
2015,10,25,14,52,13.30
2015,10,25,14,53,13.30
2015,10,25,14,54,13.30
2015,10,25,14,55,13.30
2015,10,25,14,56,13.30
2015,10,25,14,57,13.30
2015,10,25,14,58,13.30
2015,10,25,14,59,13.30
2015,10,25,15,00,13.30
2015,10,25,15,01,13.30
2015,10,25,15,02,13.30
2015,10,25,15,03,13.30
2015,10,25,15,04,13.30
2015,10,25,15,05,13.40
2015,10,25,15,06,13.40
2015,10,25,15,07,13.40
2015,10,25,15,08,13.40
2015,10,25,15,09,13.40
2015,10,25,15,10,13.50
2015,10,25,15,11,13.50
2015,10,25,15,12,13.50
2015,10,25,15,13,13.60
2015,10,25,15,14,13.60
2015,10,25,15,15,13.60
2015,10,25,15,16,13.60
2015,10,25,15,17,13.60
2015,10,25,15,18,13.60
2015,10,25,15,19,13.60
2015,10,25,15,20,13.60
2015,10,25,15,21,13.60
2015,10,25,15,22,13.60
2015,10,25,15,23,13.50
2015,10,25,15,24,13.50
2015,10,25,15,25,13.50
2015,10,25,15,26,13.40
2015,10,25,15,27,13.40
2015,10,25,15,28,13.40
2015,10,25,15,29,13.40
2015,10,25,15,30,13.40
2015,10,25,15,31,13.40
2015,10,25,15,32,13.30
2015,10,25,15,33,13.30
2015,10,25,15,34,13.30
2015,10,25,15,35,13.30
2015,10,25,15,36,13.30
2015,10,25,15,37,13.30
2015,10,25,15,38,13.30
2015,10,25,15,39,13.30
2015,10,25,15,40,13.30
2015,10,25,15,41,13.30
2015,10,25,15,42,13.30
2015,10,25,15,43,13.30
2015,10,25,15,44,13.20
2015,10,25,15,45,13.20
2015,10,25,15,46,13.20
2015,10,25,15,47,13.20
2015,10,25,15,48,13.20
2015,10,25,15,49,13.20
2015,10,25,15,50,13.20
2015,10,25,15,51,13.20
2015,10,25,15,52,13.20
2015,10,25,15,53,13.20
2015,10,25,15,54,13.20
2015,10,25,15,55,13.20
2015,10,25,15,56,13.20
2015,10,25,15,57,13.20
2015,10,25,15,58,13.10
2015,10,25,15,59,13.10
2015,10,25,16,00,13.10
2015,10,25,16,01,13.10
2015,10,25,16,02,13.10
2015,10,25,16,03,13.10
2015,10,25,16,04,13.00
2015,10,25,16,05,13.00
2015,10,25,16,06,13.00
2015,10,25,16,07,12.90
2015,10,25,16,08,12.90
2015,10,25,16,09,12.90
2015,10,25,16,10,12.90
2015,10,25,16,11,12.90
2015,10,25,16,12,12.80
2015,10,25,16,13,12.80
2015,10,25,16,14,12.80
2015,10,25,16,15,12.80
2015,10,25,16,16,12.80
2015,10,25,16,17,12.80
2015,10,25,16,18,12.80
2015,10,25,16,19,12.80
2015,10,25,16,20,12.80
2015,10,25,16,21,12.80
2015,10,25,16,22,12.80
2015,10,25,16,23,12.80
2015,10,25,16,24,12.80
2015,10,25,16,25,12.80
2015,10,25,16,26,12.80
2015,10,25,16,27,12.80
2015,10,25,16,28,12.80
2015,10,25,16,29,12.70
2015,10,25,16,30,12.70
2015,10,25,16,31,12.70
2015,10,25,16,32,12.70
2015,10,25,16,33,12.70
2015,10,25,16,34,12.70
2015,10,25,16,35,12.70
2015,10,25,16,36,12.70
2015,10,25,16,37,12.80
2015,10,25,16,38,12.80
2015,10,25,16,39,12.80
2015,10,25,16,40,12.80
2015,10,25,16,41,12.80
2015,10,25,16,42,12.80
2015,10,25,16,43,12.80
2015,10,25,16,44,12.80
2015,10,25,16,45,12.80
2015,10,25,16,46,12.80
2015,10,25,16,47,12.80
2015,10,25,16,48,12.80
2015,10,25,16,49,12.80
2015,10,25,16,50,12.80
2015,10,25,16,51,12.80
2015,10,25,16,52,12.80
2015,10,25,16,53,12.80
2015,10,25,16,54,12.80
2015,10,25,16,55,12.80
2015,10,25,16,56,12.80
2015,10,25,16,57,12.80
2015,10,25,16,58,12.80
2015,10,25,16,59,12.80
2015,10,25,17,00,12.80
2015,10,25,17,01,12.80
2015,10,25,17,02,12.80
2015,10,25,17,03,12.80
2015,10,25,17,04,12.80
2015,10,25,17,05,12.80
2015,10,25,17,06,12.80
2015,10,25,17,07,12.80
2015,10,25,17,08,12.80
2015,10,25,17,09,12.80
2015,10,25,17,10,12.80
2015,10,25,17,11,12.80
2015,10,25,17,12,12.80
2015,10,25,17,13,12.80
2015,10,25,17,14,12.80
2015,10,25,17,15,12.80
2015,10,25,17,16,12.70
2015,10,25,17,17,12.70
2015,10,25,17,18,12.70
2015,10,25,17,19,12.70
2015,10,25,17,20,12.70
2015,10,25,17,21,12.70
2015,10,25,17,22,12.70
2015,10,25,17,23,12.70
2015,10,25,17,24,12.70
2015,10,25,17,25,12.70
2015,10,25,17,26,12.70
2015,10,25,17,27,12.70
2015,10,25,17,28,12.70
2015,10,25,17,29,12.70
2015,10,25,17,30,12.70
2015,10,25,17,31,12.60
2015,10,25,17,32,12.60
2015,10,25,17,33,12.60
2015,10,25,17,34,12.60
2015,10,25,17,35,12.60
2015,10,25,17,36,12.60
2015,10,25,17,37,12.50
2015,10,25,17,38,12.50
2015,10,25,17,39,12.50
2015,10,25,17,40,12.50
2015,10,25,17,41,12.40
2015,10,25,17,42,12.40
2015,10,25,17,43,12.40
2015,10,25,17,44,12.40
2015,10,25,17,45,12.40
2015,10,25,17,46,12.30
2015,10,25,17,47,12.30